Weather History for Torrington, WY

Change the Weather History Date:

Tuesday, October 11, 2011

  Actual Average Record
Temperature  
Mean Temperature 53 °F 50 °F  
Max Temperature 70 °F 65 °F 88 °F (1999)
Min Temperature 36 °F 35 °F 18 °F (2009)
Degree Days  
Heating Degree Days 12 15  
Month to date heating degree days 91 144  
Since 1 July heating degree days 211 338  
Cooling Degree Days 0 0  
Month to date cooling degree days 5 0  
Year to date cooling degree days 843 678  
Growing Degree Days 2 (Base 50)    
Moisture  
Dew Point 36 °F    
Average Humidity 55    
Maximum Humidity 85    
Minimum Humidity 24    
Precipitation  
Precipitation T in 0.04 in 1.66 in (2013)
Month to date precipitation 1.55 0.42  
Year to date precipitation 16.02 12.75  
Sea Level Pressure  
Sea Level Pressure 29.73 in    
Wind  
Wind Speed 10 mph (WNW)    
Max Wind Speed 25 mph    
Max Gust Speed 35 mph    
Visibility 10 miles    
Events Rain    
T = Trace of Precipitation, MM = Missing Value Source: NWS Daily Summary

Daily Weather History Graph

Daily Weather History Graph

Search for Another Location

Airport:

Trip Planner

Search our weather history database for the weather conditions in past years. The results will help you decide how hot, cold, wet, or windy it might be!

Date:

Astronomy

Oct. 11, 2011 Rise Set
Actual Time 7:04 AM MDT 6:21 PM MDT
Civil Twilight 6:36 AM MDT 6:49 PM MDT
Nautical Twilight 6:03 AM MDT 7:22 PM MDT
Astronomical Twilight 5:31 AM MDT 7:54 PM MDT
Moon 5:53 PM MDT (10/11) 6:45 AM MDT (10/11)
Length of Visible Light 12h 13m
Length of Day
11h 17m
Full, 100% of the Moon is Illuminated
Oct 11
Full
Oct 11
Full
Oct 19
Last Quarter
Oct 26
New
Nov 2
First Quarter

Hourly Weather History & Observations

Time (MDT) Temp. Windchill Dew Point Humidity Pressure Visibility Wind Dir Wind Speed Gust Speed Precip Events Conditions
12:53 AM 41.0 °F 37.1 °F 33.1 °F 73% 29.78 in 10.0 mi ENE 5.8 mph - N/A   Clear
1:53 AM 41.0 °F 37.1 °F 34.0 °F 76% 29.78 in 10.0 mi SE 5.8 mph - N/A   Clear
2:53 AM 39.0 °F - 33.1 °F 79% 29.77 in 10.0 mi Calm Calm - N/A   Clear
3:53 AM 37.0 °F - 33.1 °F 86% 29.77 in 10.0 mi Calm Calm - N/A   Clear
4:53 AM 39.9 °F 36.7 °F 34.0 °F 79% 29.76 in 10.0 mi NW 4.6 mph - N/A   Mostly Cloudy
5:53 AM 37.9 °F 34.4 °F 34.0 °F 86% 29.77 in 10.0 mi East 4.6 mph - N/A   Partly Cloudy
8:53 AM 54.0 °F - 39.0 °F 57% 29.74 in 10.0 mi WSW 11.5 mph - N/A   Clear
9:53 AM 57.0 °F - 37.9 °F 49% 29.73 in 10.0 mi WSW 15.0 mph 23.0 mph N/A   Clear
10:53 AM 62.1 °F - 37.9 °F 41% 29.72 in 10.0 mi West 17.3 mph 24.2 mph N/A   Clear
11:53 AM 64.9 °F - 36.0 °F 34% 29.70 in 10.0 mi West 18.4 mph 28.8 mph N/A   Partly Cloudy
1:53 PM 66.9 °F - 34.0 °F 30% 29.67 in 10.0 mi NW 16.1 mph 25.3 mph N/A   Clear
2:53 PM 68.0 °F - 30.0 °F 24% 29.66 in 10.0 mi West 20.7 mph 29.9 mph N/A   Partly Cloudy
3:53 PM 68.0 °F - 35.1 °F 30% 29.67 in 10.0 mi West 18.4 mph 26.5 mph N/A   Scattered Clouds
4:53 PM 64.9 °F - 35.1 °F 33% 29.68 in 10.0 mi WNW 8.1 mph - N/A   Mostly Cloudy
5:53 PM 63.0 °F - 36.0 °F 37% 29.69 in 10.0 mi West 5.8 mph - N/A   Overcast
6:53 PM 59.0 °F - 39.0 °F 48% 29.71 in 10.0 mi WNW 8.1 mph - 0.00 in Rain Light Rain
7:53 PM 57.0 °F - 42.1 °F 57% 29.72 in 10.0 mi SW 4.6 mph - 0.00 in   Overcast
8:53 PM 57.0 °F - 39.0 °F 51% 29.75 in 10.0 mi NW 19.6 mph 27.6 mph N/A   Overcast
9:53 PM 51.1 °F - 39.9 °F 66% 29.75 in 10.0 mi WNW 4.6 mph - N/A   Clear
10:53 PM 48.0 °F - 39.9 °F 74% 29.78 in 10.0 mi West 5.8 mph - N/A   Clear
11:53 PM 46.0 °F 43.1 °F 39.0 °F 76% 29.77 in 10.0 mi West 5.8 mph - N/A   Partly Cloudy